Location: �perlecques
(50.8057°N, 2.1521°E)
Time: 11:07:43
(UTC+00:00)

Tianhe-1 - Visible Passes

Search period start: 22 June 2021 00:00
Search period end: 02 July 2021 00:00
Orbit: 374 x 386 km, 41.5° (Epoch: 22 June)

Date Brightness Start Highest point End Pass type
(mag) Time Alt. Az. Time Alt. Az. Time Alt. Az.
24 Jun 3.5 02:00:29 10° SSE 02:00:36 10° SSE 02:00:44 10° SSE visible
25 Jun 3.1 02:34:08 11° SSW 02:35:47 14° S 02:37:36 10° SE visible
26 Jun 3.4 01:35:48 12° SSE 01:35:48 12° SSE 01:36:26 10° SE visible
27 Jun 2.9 02:09:39 15° SSW 02:10:14 15° S 02:12:11 10° SE visible
28 Jun 3.0 02:43:46 10° SW 02:45:27 14° S 02:47:09 10° SSE visible
29 Jun 3.2 01:45:44 13° SSE 01:45:44 13° SSE 01:46:34 10° SE visible
30 Jun 3.2 02:20:20 11° S 02:20:20 11° S 02:21:01 10° S visible
